map of NSA home
Great Circle Mapper logo
NSA - Airport
Location
City:  Natal, Rio Grande do Norte, Brazil
Near (Alt.):Parnamirim
Name:Augusto Severo International Airport
Old (Alt.):Parnamirim Airport
ICAO / IATA:SBNT / NSA

Details
Type:Airport (Aerodrome, Airfield)
Use:Public/Civil, International (customs port of entry)
Latitude:5°54'30"S (-5.908332)
Longitude:35°14'57"W (-35.249166)
Elevation:167 ft (51 m)
Variation:21.51°W (WMM2015 magnetic declination)
0.04° annual change
Runways:3
Longest:8530 × 148 ft (2600 × 45 m), paved

Time
Time Zone:UTC-3
Local Time:

Weather
METAR:SBNT 052200Z 11008KT 9999 FEW019 27/23 Q1010
TAF:SBNT 051500Z 0518/0618 13012KT 9999 SCT020 TN24/0608Z TX30/0616Z
BECMG 0522/0524 16006KT
BECMG 0610/0612 13012KT
RMK PCN

Related Locations
Nearby:
Farthest:ULI: 12000 mi / 19313 km
Falalop Island, Ulithi Atoll, YAP, FM

Find:

   beyond  
but within

Other Information
Maps:
NOTAMs:
Links:
Sources:

  
flag of Brazil
flag of Rio Grande do Norte
  

Sectional Chart

Flight Planning
at skyvector.com

Satellite Image

Google Maps Satellite View

 

Copyright © 2004-2015 Karl L. Swartz. All rights reserved.
The Great Circle Mapper name and logo are trademarks of the Great Circle Mapper.
All other trademarks mentioned herein belong to their respective owners.
Please see credits for attibutions and further copyright information.

  Follow gcmap on Facebook Follow gcmap on Twitter Follow gcmap on Google+

hCard Microformat

Geo Microformat